Location: *
(43.4667°N, 11.6833°E)
Time: 09:00:45
(UTC+00:00)

Cosmos 2195 Rocket - Pass Details

Date: 19 July 2019
Orbit: 950 x 992 km, 82.9° (Epoch: 23 August)

Event Time Altitude Azimuth Distance (km) Brightness Sun altitude
Rises 20:55:16 0° 352° (N) 3,700 8.7 -17.7°
Reaches altitude 10° 20:57:47 10° 353° (N) 2,752 7.8 -18.0°
Maximum altitude 21:04:08 85° 82° (E) 1,000 4.5 -18.6°
Enters shadow 21:07:39 29° 170° (S) 1,741 5.3 -19.0°
